Time,TemperatureF,DewpointF,PressureIn,WindDirection,WindDirectionDegrees,WindSpeedMPH,WindSpeedGustMPH,Humidity,HourlyPrecipIn,Conditions,Clouds,dailyrainin,SoftwareType,DateUTC
2013-07-01 00:01:00,73.2,69.5,29.87,SSE,158,0.0,0.0,88,0.00,CLR,,0.00,WeatherDisplay:10.37,2013-07-01 04:01:00,
2013-07-01 00:06:00,73.2,69.5,29.87,SSE,158,0.0,0.0,88,0.00,CLR,,0.00,WeatherDisplay:10.37,2013-07-01 04:06:00,
2013-07-01 00:11:00,73.2,69.5,29.87,SSE,158,0.0,0.0,88,0.00,CLR,,0.00,WeatherDisplay:10.37,2013-07-01 04:11:00,
2013-07-01 00:16:00,73.2,69.8,29.87,SSE,158,0.0,0.0,89,0.00,CLR,,0.00,WeatherDisplay:10.37,2013-07-01 04:16:00,
2013-07-01 00:21:00,73.2,69.8,29.87,SSE,158,0.0,0.0,89,0.00,CLR,,0.00,WeatherDisplay:10.37,2013-07-01 04:21:00,
2013-07-01 00:26:00,73.2,69.8,29.87,SSE,158,0.0,0.0,89,0.00,CLR,,0.00,WeatherDisplay:10.37,2013-07-01 04:26:00,
2013-07-01 00:31:00,73.0,69.6,29.87,SSE,158,0.0,0.0,89,0.00,CLR,,0.00,WeatherDisplay:10.37,2013-07-01 04:31:00,
2013-07-01 00:36:00,73.0,69.6,29.87,SSE,158,0.0,0.0,89,0.00,CLR,,0.00,WeatherDisplay:10.37,2013-07-01 04:36:00,
2013-07-01 00:41:00,73.0,69.6,29.87,SSE,158,0.0,0.0,89,0.00,CLR,,0.00,WeatherDisplay:10.37,2013-07-01 04:41:00,
2013-07-01 00:46:00,73.0,69.6,29.87,SSE,158,0.0,0.0,89,0.00,CLR,,0.00,WeatherDisplay:10.37,2013-07-01 04:46:00,
2013-07-01 00:51:00,73.0,69.6,29.87,SSE,158,0.0,0.0,89,0.00,CLR,,0.00,WeatherDisplay:10.37,2013-07-01 04:51:00,
2013-07-01 00:56:00,73.0,69.3,29.87,SSE,158,0.0,0.0,88,0.00,CLR,,0.00,WeatherDisplay:10.37,2013-07-01 04:56:00,
2013-07-01 01:01:00,72.9,69.1,29.87,SSE,158,0.0,0.0,88,0.00,CLR,,0.00,WeatherDisplay:10.37,2013-07-01 05:01:00,
2013-07-01 01:06:00,72.9,69.1,29.87,SSE,158,0.0,0.0,88,0.00,CLR,,0.00,WeatherDisplay:10.37,2013-07-01 05:06:00,
2013-07-01 01:11:00,72.9,69.1,29.87,SSE,158,0.0,0.0,88,0.00,CLR,,0.00,WeatherDisplay:10.37,2013-07-01 05:11:00,
2013-07-01 01:16:00,72.9,69.4,29.88,SSE,158,0.0,0.0,89,0.00,CLR,,0.00,WeatherDisplay:10.37,2013-07-01 05:16:00,
2013-07-01 01:21:00,72.9,69.4,29.88,SSE,158,0.0,0.0,89,0.00,CLR,,0.00,WeatherDisplay:10.37,2013-07-01 05:21:00,
2013-07-01 01:26:00,72.9,69.4,29.87,SSE,158,0.0,0.0,89,0.00,CLR,,0.00,WeatherDisplay:10.37,2013-07-01 05:26:00,
2013-07-01 01:31:00,73.0,69.6,29.87,SSE,158,0.0,0.0,89,0.00,CLR,,0.00,WeatherDisplay:10.37,2013-07-01 05:31:00,
2013-07-01 01:36:00,73.0,69.6,29.87,SSE,158,0.0,0.0,89,0.00,CLR,,0.00,WeatherDisplay:10.37,2013-07-01 05:36:00,
2013-07-01 01:41:00,73.0,69.6,29.87,SSE,158,0.0,0.0,89,0.00,CLR,,0.00,WeatherDisplay:10.37,2013-07-01 05:41:00,
2013-07-01 01:46:00,73.0,69.6,29.87,SSE,158,0.0,0.0,89,0.00,CLR,,0.00,WeatherDisplay:10.37,2013-07-01 05:46:00,
2013-07-01 01:51:00,73.0,69.6,29.87,SSE,158,0.0,0.0,89,0.00,CLR,,0.00,WeatherDisplay:10.37,2013-07-01 05:51:00,
2013-07-01 01:56:00,73.0,69.6,29.87,SSE,158,0.0,0.0,89,0.00,CLR,,0.00,WeatherDisplay:10.37,2013-07-01 05:56:00,
2013-07-01 02:01:00,73.0,69.6,29.87,SSE,158,0.0,0.0,89,0.00,CLR,,0.00,WeatherDisplay:10.37,2013-07-01 06:01:00,
2013-07-01 02:06:00,73.0,69.6,29.87,SSE,158,0.0,0.0,89,0.00,CLR,,0.00,WeatherDisplay:10.37,2013-07-01 06:06:00,
2013-07-01 02:11:00,73.0,69.6,29.87,SSE,158,0.0,0.0,89,0.00,CLR,,0.00,WeatherDisplay:10.37,2013-07-01 06:11:00,
2013-07-01 02:16:00,73.0,69.6,29.87,SSE,158,0.0,0.0,89,0.00,CLR,,0.00,WeatherDisplay:10.37,2013-07-01 06:16:00,
2013-07-01 02:21:00,73.0,69.6,29.87,SSE,158,0.0,0.0,89,0.00,CLR,,0.00,WeatherDisplay:10.37,2013-07-01 06:21:00,
2013-07-01 02:26:00,73.2,70.1,29.87,SSE,158,0.0,0.0,90,0.00,CLR,,0.00,WeatherDisplay:10.37,2013-07-01 06:26:00,
2013-07-01 02:31:00,73.2,70.1,29.86,SSE,158,0.0,0.0,90,0.00,CLR,,0.00,WeatherDisplay:10.37,2013-07-01 06:31:00,
2013-07-01 02:36:00,73.2,70.1,29.86,SSE,158,0.0,0.0,90,0.00,CLR,,0.00,WeatherDisplay:10.37,2013-07-01 06:36:00,
2013-07-01 02:41:00,73.2,70.1,29.86,SSE,158,0.0,0.0,90,0.00,CLR,,0.00,WeatherDisplay:10.37,2013-07-01 06:41:00,
2013-07-01 02:46:00,73.2,70.1,29.86,SSE,158,0.0,0.0,90,0.00,CLR,,0.00,WeatherDisplay:10.37,2013-07-01 06:46:00,
2013-07-01 02:51:00,73.2,70.1,29.86,SSE,158,0.0,0.0,90,0.00,CLR,,0.00,WeatherDisplay:10.37,2013-07-01 06:51:00,
2013-07-01 02:56:00,73.2,70.1,29.86,SSE,158,0.0,0.0,90,0.00,CLR,,0.00,WeatherDisplay:10.37,2013-07-01 06:56:00,
2013-07-01 03:01:00,73.2,70.1,29.86,SSE,158,0.0,0.0,90,0.00,CLR,,0.00,WeatherDisplay:10.37,2013-07-01 07:01:00,
2013-07-01 03:06:00,73.4,70.3,29.86,SSE,158,0.0,0.0,90,0.00,CLR,,0.00,WeatherDisplay:10.37,2013-07-01 07:06:00,
2013-07-01 03:11:00,73.4,70.3,29.86,East,90,0.0,0.0,90,0.00,CLR,,0.00,WeatherDisplay:10.37,2013-07-01 07:11:00,
2013-07-01 03:16:00,73.4,70.3,29.86,NW,315,0.0,0.0,90,0.00,CLR,,0.00,WeatherDisplay:10.37,2013-07-01 07:16:00,
2013-07-01 03:21:00,73.4,70.3,29.86,NW,315,0.0,0.0,90,0.00,CLR,,0.00,WeatherDisplay:10.37,2013-07-01 07:21:00,
2013-07-01 03:26:00,73.4,70.3,29.86,NW,315,0.0,0.0,90,0.00,CLR,,0.00,WeatherDisplay:10.37,2013-07-01 07:26:00,
2013-07-01 03:31:00,73.4,70.3,29.86,NW,315,0.0,0.0,90,0.00,CLR,,0.00,WeatherDisplay:10.37,2013-07-01 07:31:00,
2013-07-01 03:36:00,73.4,70.3,29.86,NW,315,0.0,0.0,90,0.00,CLR,,0.00,WeatherDisplay:10.37,2013-07-01 07:36:00,
2013-07-01 03:41:00,73.4,70.0,29.85,NW,315,0.0,0.0,89,0.00,CLR,,0.00,WeatherDisplay:10.37,2013-07-01 07:41:00,
2013-07-01 03:46:00,73.4,70.0,29.86,West,270,0.0,0.0,89,0.00,CLR,,0.00,WeatherDisplay:10.37,2013-07-01 07:46:00,
2013-07-01 03:51:00,73.4,70.0,29.86,West,270,0.0,0.0,89,0.00,CLR,,0.00,WeatherDisplay:10.37,2013-07-01 07:51:00,
2013-07-01 03:56:00,73.4,70.0,29.86,West,270,0.0,0.0,89,0.00,CLR,,0.00,WeatherDisplay:10.37,2013-07-01 07:56:00,
2013-07-01 04:01:00,73.4,70.0,29.86,WSW,248,0.0,0.0,89,0.00,CLR,,0.00,WeatherDisplay:10.37,2013-07-01 08:01:00,
2013-07-01 04:06:00,73.4,70.0,29.86,NW,315,0.0,0.0,89,0.00,CLR,,0.00,WeatherDisplay:10.37,2013-07-01 08:06:00,
2013-07-01 04:11:00,73.4,70.0,29.86,NNW,338,0.0,0.0,89,0.00,CLR,,0.00,WeatherDisplay:10.37,2013-07-01 08:11:00,
2013-07-01 04:16:00,73.4,70.0,29.86,West,270,0.0,0.0,89,0.00,CLR,,0.00,WeatherDisplay:10.37,2013-07-01 08:16:00,
2013-07-01 04:21:00,73.4,70.0,29.86,West,270,0.0,0.0,89,0.00,CLR,,0.00,WeatherDisplay:10.37,2013-07-01 08:21:00,
2013-07-01 04:26:00,73.4,70.0,29.86,West,270,0.0,0.0,89,0.00,CLR,,0.00,WeatherDisplay:10.37,2013-07-01 08:26:00,
2013-07-01 04:31:00,73.4,70.0,29.86,West,270,0.0,0.0,89,0.00,CLR,,0.00,WeatherDisplay:10.37,2013-07-01 08:31:00,
2013-07-01 04:36:00,73.4,70.0,29.86,West,270,0.0,0.0,89,0.00,CLR,,0.00,WeatherDisplay:10.37,2013-07-01 08:36:00,
2013-07-01 04:41:00,73.4,70.0,29.86,West,270,0.0,0.0,89,0.00,CLR,,0.00,WeatherDisplay:10.37,2013-07-01 08:41:00,
2013-07-01 04:42:00,73.4,70.0,29.86,SW,225,0.5,0.5,89,0.00,CLR,,0.00,WeatherDisplay:10.37,2013-07-01 08:42:00,
2013-07-01 04:47:00,73.4,70.0,29.87,SSE,158,1.1,0.0,89,0.00,CLR,,0.00,WeatherDisplay:10.37,2013-07-01 08:47:00,
2013-07-01 04:52:00,73.4,70.0,29.87,SW,225,0.0,0.0,89,0.00,CLR,,0.00,WeatherDisplay:10.37,2013-07-01 08:52:00,
2013-07-01 04:57:00,73.2,69.8,29.87,SE,135,0.0,0.0,89,0.00,CLR,,0.00,WeatherDisplay:10.37,2013-07-01 08:57:00,
2013-07-01 05:02:00,73.4,70.0,29.87,ESE,112,0.0,0.0,89,0.00,CLR,,0.00,WeatherDisplay:10.37,2013-07-01 09:02:00,
2013-07-01 05:07:00,73.2,70.1,29.87,ESE,112,0.0,0.0,90,0.00,CLR,,0.00,WeatherDisplay:10.37,2013-07-01 09:07:00,
2013-07-01 05:12:00,73.2,69.8,29.87,ESE,112,0.0,0.0,89,0.00,CLR,,0.00,WeatherDisplay:10.37,2013-07-01 09:12:00,
2013-07-01 05:17:00,73.2,69.8,29.87,ESE,112,0.0,0.0,89,0.00,CLR,,0.00,WeatherDisplay:10.37,2013-07-01 09:17:00,
2013-07-01 05:22:00,73.2,69.8,29.87,ESE,112,0.0,0.0,89,0.00,CLR,,0.00,WeatherDisplay:10.37,2013-07-01 09:22:00,
2013-07-01 05:27:00,73.2,69.8,29.87,ESE,112,0.0,0.0,89,0.00,CLR,,0.00,WeatherDisplay:10.37,2013-07-01 09:27:00,
2013-07-01 05:32:00,73.2,69.8,29.87,ESE,112,0.0,0.0,89,0.00,CLR,,0.00,WeatherDisplay:10.37,2013-07-01 09:32:00,
2013-07-01 05:37:00,73.2,69.8,29.88,ESE,112,0.0,0.0,89,0.00,CLR,,0.00,WeatherDisplay:10.37,2013-07-01 09:37:00,
2013-07-01 05:42:00,73.4,70.0,29.88,SSW,202,0.0,0.0,89,0.00,CLR,,0.00,WeatherDisplay:10.37,2013-07-01 09:42:00,
2013-07-01 05:47:00,73.4,70.0,29.88,SSW,202,0.0,0.0,89,0.00,CLR,,0.00,WeatherDisplay:10.37,2013-07-01 09:47:00,
2013-07-01 05:52:00,73.2,69.8,29.88,SSW,202,0.0,0.0,89,0.00,CLR,,0.00,WeatherDisplay:10.37,2013-07-01 09:52:00,
2013-07-01 05:57:00,73.2,69.8,29.88,SSW,202,0.0,0.0,89,0.00,CLR,,0.00,WeatherDisplay:10.37,2013-07-01 09:57:00,
2013-07-01 06:02:00,73.4,70.0,29.88,SSW,202,0.0,0.0,89,0.00,CLR,,0.00,WeatherDisplay:10.37,2013-07-01 10:02:00,
2013-07-01 06:07:00,73.4,70.0,29.89,SW,225,0.2,0.2,89,0.00,CLR,,0.00,WeatherDisplay:10.37,2013-07-01 10:07:00,
2013-07-01 06:12:00,73.4,70.0,29.89,SE,135,1.1,1.1,89,0.00,CLR,,0.00,WeatherDisplay:10.37,2013-07-01 10:12:00,
2013-07-01 06:17:00,73.4,70.0,29.89,SSE,158,0.0,0.0,89,0.00,CLR,,0.00,WeatherDisplay:10.37,2013-07-01 10:17:00,
2013-07-01 06:22:00,73.4,70.0,29.89,NW,315,0.2,0.2,89,0.00,CLR,,0.00,WeatherDisplay:10.37,2013-07-01 10:22:00,
2013-07-01 06:27:00,73.4,70.3,29.89,SE,135,0.0,0.0,90,0.00,CLR,,0.00,WeatherDisplay:10.37,2013-07-01 10:27:00,
2013-07-01 06:32:00,73.6,70.1,29.88,SE,135,0.0,0.0,89,0.00,CLR,,0.00,WeatherDisplay:10.37,2013-07-01 10:32:00,
2013-07-01 06:37:00,73.4,70.3,29.89,SE,135,0.0,0.0,90,0.00,CLR,,0.00,WeatherDisplay:10.37,2013-07-01 10:37:00,
2013-07-01 06:42:00,73.6,70.1,29.89,SE,135,0.0,0.0,89,0.00,CLR,,0.00,WeatherDisplay:10.37,2013-07-01 10:42:00,
2013-07-01 06:47:00,73.6,70.1,29.89,SE,135,0.0,0.0,89,0.00,CLR,,0.00,WeatherDisplay:10.37,2013-07-01 10:47:00,
2013-07-01 06:52:00,73.6,70.1,29.89,SE,135,0.0,0.0,89,0.00,CLR,,0.00,WeatherDisplay:10.37,2013-07-01 10:52:00,
2013-07-01 06:57:00,73.8,70.3,29.89,SE,135,0.0,0.0,89,0.00,CLR,,0.00,WeatherDisplay:10.37,2013-07-01 10:57:00,
2013-07-01 07:02:00,73.8,70.3,29.89,SE,135,0.0,0.0,89,0.00,CLR,,0.00,WeatherDisplay:10.37,2013-07-01 11:02:00,
2013-07-01 07:07:00,73.8,70.3,29.89,SE,135,1.1,0.0,89,0.00,CLR,,0.00,WeatherDisplay:10.37,2013-07-01 11:07:00,
2013-07-01 07:12:00,73.8,70.3,29.89,SE,135,0.0,0.0,89,0.00,CLR,,0.00,WeatherDisplay:10.37,2013-07-01 11:12:00,
2013-07-01 07:17:00,73.8,70.3,29.89,SE,135,0.0,0.0,89,0.00,CLR,,0.00,WeatherDisplay:10.37,2013-07-01 11:17:00,
2013-07-01 07:22:00,73.9,70.5,29.89,SE,135,0.0,0.0,89,0.00,CLR,,0.00,WeatherDisplay:10.37,2013-07-01 11:22:00,
2013-07-01 07:27:00,74.1,70.7,29.89,SSW,202,1.1,1.1,89,0.00,CLR,,0.00,WeatherDisplay:10.37,2013-07-01 11:27:00,
2013-07-01 07:32:00,74.1,70.7,29.89,SSE,158,0.0,0.0,89,0.00,CLR,,0.00,WeatherDisplay:10.37,2013-07-01 11:32:00,
2013-07-01 07:37:00,74.3,70.8,29.90,WSW,248,0.5,0.5,89,0.00,CLR,,0.00,WeatherDisplay:10.37,2013-07-01 11:37:00,
2013-07-01 07:42:00,74.5,71.0,29.90,SW,225,0.5,0.5,89,0.00,CLR,,0.00,WeatherDisplay:10.37,2013-07-01 11:42:00,
2013-07-01 07:47:00,74.5,71.0,29.89,East,90,0.0,0.0,89,0.00,CLR,,0.00,WeatherDisplay:10.37,2013-07-01 11:47:00,
2013-07-01 07:52:00,74.5,71.0,29.90,SW,225,0.0,0.0,89,0.00,CLR,,0.00,WeatherDisplay:10.37,2013-07-01 11:52:00,
2013-07-01 07:57:00,74.5,71.0,29.90,SSE,158,1.4,1.4,89,0.00,CLR,,0.00,WeatherDisplay:10.37,2013-07-01 11:57:00,
2013-07-01 08:02:00,74.7,71.2,29.90,WSW,248,0.2,0.2,89,0.00,CLR,,0.00,WeatherDisplay:10.37,2013-07-01 12:02:00,
2013-07-01 08:07:00,74.7,71.2,29.90,East,90,1.1,1.1,89,0.00,CLR,,0.00,WeatherDisplay:10.37,2013-07-01 12:07:00,
2013-07-01 08:12:00,74.8,71.4,29.90,SW,225,1.1,1.1,89,0.00,CLR,,0.00,WeatherDisplay:10.37,2013-07-01 12:12:00,
2013-07-01 08:17:00,75.0,71.6,29.90,NW,315,0.0,0.0,89,0.00,CLR,,0.00,WeatherDisplay:10.37,2013-07-01 12:17:00,
2013-07-01 08:22:00,75.2,71.7,29.90,SE,135,1.1,1.1,89,0.00,CLR,,0.00,WeatherDisplay:10.37,2013-07-01 12:22:00,
2013-07-01 08:27:00,75.7,72.3,29.91,South,180,2.0,2.0,89,0.00,CLR,,0.00,WeatherDisplay:10.37,2013-07-01 12:27:00,
2013-07-01 08:32:00,75.9,72.4,29.90,SW,225,0.0,0.0,89,0.00,CLR,,0.00,WeatherDisplay:10.37,2013-07-01 12:32:00,
2013-07-01 08:37:00,76.1,72.6,29.91,WSW,248,3.5,3.5,89,0.00,CLR,,0.00,WeatherDisplay:10.37,2013-07-01 12:37:00,
2013-07-01 08:42:00,76.1,72.3,29.91,SW,225,1.1,0.0,88,0.00,CLR,,0.00,WeatherDisplay:10.37,2013-07-01 12:42:00,
2013-07-01 08:47:00,76.1,72.3,29.91,SW,225,0.0,0.0,88,0.00,CLR,,0.00,WeatherDisplay:10.37,2013-07-01 12:47:00,
2013-07-01 08:52:00,76.3,72.5,29.90,North,0,0.0,0.0,88,0.00,CLR,,0.00,WeatherDisplay:10.37,2013-07-01 12:52:00,
2013-07-01 08:57:00,76.6,72.8,29.90,NW,315,0.0,0.0,88,0.00,CLR,,0.00,WeatherDisplay:10.37,2013-07-01 12:57:00,
2013-07-01 09:02:00,76.6,72.8,29.90,WSW,248,1.1,1.1,88,0.00,CLR,,0.00,WeatherDisplay:10.37,2013-07-01 13:02:00,
2013-07-01 09:07:00,77.0,73.2,29.90,WSW,248,1.1,0.0,88,0.00,CLR,,0.00,WeatherDisplay:10.37,2013-07-01 13:07:00,
2013-07-01 09:12:00,77.2,73.0,29.90,North,0,0.0,0.0,87,0.00,CLR,,0.00,WeatherDisplay:10.37,2013-07-01 13:12:00,
2013-07-01 09:17:00,77.4,73.2,29.90,WSW,248,1.1,1.1,87,0.00,CLR,,0.00,WeatherDisplay:10.37,2013-07-01 13:17:00,
2013-07-01 09:22:00,77.4,73.2,29.90,NW,315,0.0,0.0,87,0.00,CLR,,0.00,WeatherDisplay:10.37,2013-07-01 13:22:00,
2013-07-01 09:27:00,77.0,72.8,29.90,NW,315,0.0,0.0,87,0.00,CLR,,0.00,WeatherDisplay:10.37,2013-07-01 13:27:00,
2013-07-01 09:32:00,76.8,72.3,29.89,East,90,1.1,1.1,86,0.00,CLR,,0.00,WeatherDisplay:10.37,2013-07-01 13:32:00,
2013-07-01 09:37:00,76.6,72.5,29.88,East,90,1.1,1.1,87,0.00,CLR,,0.00,WeatherDisplay:10.37,2013-07-01 13:37:00,
2013-07-01 09:42:00,76.6,72.5,29.87,East,90,1.1,1.1,87,0.00,CLR,,0.00,WeatherDisplay:10.37,2013-07-01 13:42:00,
2013-07-01 09:47:00,76.6,72.1,29.86,East,90,1.6,1.6,86,0.00,CLR,,0.00,WeatherDisplay:10.37,2013-07-01 13:47:00,
2013-07-01 09:52:00,76.5,72.3,29.87,ENE,68,1.1,1.1,87,0.00,CLR,,0.00,WeatherDisplay:10.37,2013-07-01 13:52:00,
2013-07-01 09:57:00,76.1,71.9,29.87,East,90,1.1,1.1,87,0.03,RA,,0.03,WeatherDisplay:10.37,2013-07-01 13:57:00,
2013-07-01 10:02:00,75.6,71.4,29.90,WSW,248,1.1,1.1,87,0.21,RA,,0.31,WeatherDisplay:10.37,2013-07-01 14:02:00,
2013-07-01 10:07:00,74.8,71.4,29.89,SW,225,2.3,2.3,89,0.73,RA,,0.79,WeatherDisplay:10.37,2013-07-01 14:07:00,
2013-07-01 10:12:00,73.9,70.5,29.89,ESE,112,1.8,1.8,89,1.00,RA,,1.03,WeatherDisplay:10.37,2013-07-01 14:12:00,
2013-07-01 10:17:00,73.6,70.8,29.90,SW,225,2.3,2.3,91,1.14,RA,,1.14,WeatherDisplay:10.37,2013-07-01 14:17:00,
2013-07-01 10:22:00,73.4,70.6,29.90,ESE,112,2.3,2.3,91,1.24,RA,,1.29,WeatherDisplay:10.37,2013-07-01 14:22:00,
2013-07-01 10:27:00,73.0,69.9,29.91,South,180,1.4,1.4,90,1.34,RA,,1.35,WeatherDisplay:10.37,2013-07-01 14:27:00,
2013-07-01 10:32:00,73.0,69.9,29.91,NNE,22,1.1,0.0,90,1.37,RA,,1.38,WeatherDisplay:10.37,2013-07-01 14:32:00,
2013-07-01 10:37:00,73.2,70.8,29.92,ENE,68,1.1,1.1,92,1.39,RA,,1.39,WeatherDisplay:10.37,2013-07-01 14:37:00,
2013-07-01 10:42:00,73.2,70.8,29.92,ENE,68,2.3,2.3,92,1.40,RA,,1.40,WeatherDisplay:10.37,2013-07-01 14:42:00,
2013-07-01 10:47:00,72.9,70.1,29.92,ENE,68,3.5,0.0,91,1.41,RA,,1.41,WeatherDisplay:10.37,2013-07-01 14:47:00,
2013-07-01 10:52:00,72.5,69.7,29.92,ESE,112,0.0,0.0,91,1.41,RA,,1.41,WeatherDisplay:10.37,2013-07-01 14:52:00,
2013-07-01 10:57:00,72.7,69.9,29.93,East,90,0.7,0.7,91,1.38,,,1.41,WeatherDisplay:10.37,2013-07-01 14:57:00,
2013-07-01 11:02:00,72.5,69.7,29.93,ESE,112,1.1,0.0,91,1.21,RA,,1.42,WeatherDisplay:10.37,2013-07-01 15:02:00,
2013-07-01 11:07:00,72.5,69.7,29.93,SW,225,0.5,0.5,91,0.70,RA,,1.43,WeatherDisplay:10.37,2013-07-01 15:07:00,
2013-07-01 11:12:00,72.5,69.7,29.93,SW,225,0.0,0.0,91,0.45,RA,,1.44,WeatherDisplay:10.37,2013-07-01 15:12:00,
2013-07-01 11:17:00,72.3,69.5,29.93,SW,225,0.0,0.0,91,0.31,RA,,1.44,WeatherDisplay:10.37,2013-07-01 15:17:00,
2013-07-01 11:22:00,72.3,69.5,29.93,SW,225,0.0,0.0,91,0.21,RA,,1.45,WeatherDisplay:10.37,2013-07-01 15:22:00,
2013-07-01 11:27:00,72.3,69.5,29.93,ENE,68,0.0,0.0,91,0.12,RA,,1.46,WeatherDisplay:10.37,2013-07-01 15:27:00,
2013-07-01 11:32:00,72.1,69.7,29.93,ENE,68,0.0,0.0,92,0.10,RA,,1.47,WeatherDisplay:10.37,2013-07-01 15:32:00,
2013-07-01 11:37:00,72.1,69.7,29.93,ENE,68,0.0,0.0,92,0.08,RA,,1.47,WeatherDisplay:10.37,2013-07-01 15:37:00,
2013-07-01 11:42:00,72.3,69.9,29.93,ENE,68,0.0,0.0,92,0.07,,,1.47,WeatherDisplay:10.37,2013-07-01 15:42:00,
2013-07-01 11:47:00,72.3,69.9,29.93,ENE,68,0.0,0.0,92,0.07,RA,,1.48,WeatherDisplay:10.37,2013-07-01 15:47:00,
2013-07-01 11:52:00,72.7,70.2,29.93,ENE,68,1.1,1.1,92,0.07,RA,,1.48,WeatherDisplay:10.37,2013-07-01 15:52:00,
2013-07-01 11:57:00,72.9,70.4,29.93,ENE,68,0.0,0.0,92,0.07,CLR,,1.48,WeatherDisplay:10.37,2013-07-01 15:57:00,
2013-07-01 12:02:00,73.0,70.6,29.93,NE,45,1.1,0.0,92,0.06,CLR,,1.48,WeatherDisplay:10.37,2013-07-01 16:02:00,
2013-07-01 12:07:00,73.4,70.9,29.93,ESE,112,0.0,0.0,92,0.05,CLR,,1.48,WeatherDisplay:10.37,2013-07-01 16:07:00,
2013-07-01 12:12:00,73.8,71.6,29.93,ESE,112,0.0,0.0,93,0.04,CLR,,1.48,WeatherDisplay:10.37,2013-07-01 16:12:00,
2013-07-01 12:17:00,74.1,72.0,29.93,West,270,0.0,0.0,93,0.04,CLR,,1.48,WeatherDisplay:10.37,2013-07-01 16:17:00,
2013-07-01 12:22:00,74.5,72.3,29.93,ENE,68,0.0,0.0,93,0.03,CLR,,1.48,WeatherDisplay:10.37,2013-07-01 16:22:00,
2013-07-01 12:27:00,74.3,72.1,29.93,East,90,1.1,1.1,93,0.02,CLR,,1.48,WeatherDisplay:10.37,2013-07-01 16:27:00,
2013-07-01 12:32:00,74.5,72.3,29.93,East,90,0.0,0.0,93,0.01,CLR,,1.48,WeatherDisplay:10.37,2013-07-01 16:32:00,
2013-07-01 12:37:00,74.7,72.5,29.93,NE,45,0.0,0.0,93,0.01,CLR,,1.48,WeatherDisplay:10.37,2013-07-01 16:37:00,
2013-07-01 12:42:00,74.8,72.7,29.93,SSW,202,0.0,0.0,93,0.01,CLR,,1.48,WeatherDisplay:10.37,2013-07-01 16:42:00,
2013-07-01 12:47:00,75.2,73.0,29.93,ENE,68,0.0,0.0,93,0.00,CLR,,1.48,WeatherDisplay:10.37,2013-07-01 16:47:00,
2013-07-01 12:52:00,75.4,73.2,29.93,ENE,68,0.0,0.0,93,0.00,CLR,,1.48,WeatherDisplay:10.37,2013-07-01 16:52:00,
2013-07-01 12:57:00,75.4,73.2,29.93,East,90,0.0,0.0,93,0.00,CLR,,1.48,WeatherDisplay:10.37,2013-07-01 16:57:00,
2013-07-01 13:02:00,75.6,73.4,29.93,SW,225,0.5,0.5,93,0.00,CLR,,1.48,WeatherDisplay:10.37,2013-07-01 17:02:00,
2013-07-01 13:07:00,75.9,73.7,29.93,WSW,248,0.2,0.2,93,0.00,CLR,,1.48,WeatherDisplay:10.37,2013-07-01 17:07:00,
2013-07-01 13:12:00,76.1,73.9,29.93,NW,315,1.1,0.0,93,0.00,CLR,,1.48,WeatherDisplay:10.37,2013-07-01 17:12:00,
2013-07-01 13:17:00,76.1,73.9,29.93,SSW,202,1.1,0.0,93,0.00,CLR,,1.48,WeatherDisplay:10.37,2013-07-01 17:17:00,
2013-07-01 13:22:00,75.7,73.6,29.93,East,90,1.1,0.0,93,0.00,CLR,,1.48,WeatherDisplay:10.37,2013-07-01 17:22:00,
2013-07-01 13:27:00,75.6,73.4,29.93,West,270,1.1,1.1,93,0.00,CLR,,1.48,WeatherDisplay:10.37,2013-07-01 17:27:00,
2013-07-01 13:32:00,75.2,73.0,29.93,East,90,0.0,0.2,93,0.00,CLR,,1.48,WeatherDisplay:10.37,2013-07-01 17:32:00,
2013-07-01 13:37:00,75.2,73.0,29.93,East,90,0.0,0.0,93,0.00,CLR,,1.48,WeatherDisplay:10.37,2013-07-01 17:37:00,
2013-07-01 13:42:00,75.4,73.2,29.94,WSW,248,1.4,1.4,93,0.00,CLR,,1.48,WeatherDisplay:10.37,2013-07-01 17:42:00,
2013-07-01 13:47:00,75.6,73.4,29.94,East,90,1.1,0.0,93,0.00,CLR,,1.48,WeatherDisplay:10.37,2013-07-01 17:47:00,
2013-07-01 13:52:00,75.7,73.6,29.94,NW,315,0.0,0.0,93,0.00,CLR,,1.48,WeatherDisplay:10.37,2013-07-01 17:52:00,
2013-07-01 13:57:00,75.7,73.6,29.93,ESE,112,1.1,1.1,93,0.00,CLR,,1.48,WeatherDisplay:10.37,2013-07-01 17:57:00,
2013-07-01 14:02:00,75.7,73.6,29.94,SSW,202,0.0,0.0,93,0.00,CLR,,1.48,WeatherDisplay:10.37,2013-07-01 18:02:00,
2013-07-01 14:07:00,75.4,73.2,29.93,SSW,202,0.5,0.5,93,0.00,CLR,,1.48,WeatherDisplay:10.37,2013-07-01 18:07:00,
2013-07-01 14:12:00,75.2,73.0,29.93,ESE,112,0.0,0.9,93,0.01,RA,,1.50,WeatherDisplay:10.37,2013-07-01 18:12:00,
2013-07-01 14:17:00,74.8,72.7,29.93,SE,135,0.2,0.2,93,0.01,RA,,1.50,WeatherDisplay:10.37,2013-07-01 18:17:00,
2013-07-01 14:22:00,74.7,72.5,29.94,ENE,68,0.0,0.5,93,0.02,RA,,1.50,WeatherDisplay:10.37,2013-07-01 18:22:00,
2013-07-01 14:27:00,74.7,72.5,29.93,SW,225,1.1,1.1,93,0.03,RA,,1.52,WeatherDisplay:10.37,2013-07-01 18:27:00,
2013-07-01 14:32:00,74.5,72.3,29.94,East,90,0.0,0.2,93,0.04,RA,,1.52,WeatherDisplay:10.37,2013-07-01 18:32:00,
2013-07-01 14:37:00,74.5,72.3,29.94,WSW,248,0.7,0.7,93,0.05,RA,,1.54,WeatherDisplay:10.37,2013-07-01 18:37:00,
2013-07-01 14:42:00,74.5,72.3,29.93,ENE,68,0.0,0.0,93,0.06,RA,,1.54,WeatherDisplay:10.37,2013-07-01 18:42:00,
2013-07-01 14:47:00,74.3,72.1,29.94,South,180,0.2,0.2,93,0.06,RA,,1.54,WeatherDisplay:10.37,2013-07-01 18:47:00,
2013-07-01 14:52:00,74.5,72.3,29.93,South,180,0.0,0.0,93,0.08,RA,,1.57,WeatherDisplay:10.37,2013-07-01 18:52:00,
2013-07-01 14:57:00,74.5,72.3,29.94,West,270,0.0,0.0,93,0.08,RA,,1.57,WeatherDisplay:10.37,2013-07-01 18:57:00,
2013-07-01 15:02:00,74.7,72.8,29.93,ESE,112,1.1,0.0,94,0.09,RA,,1.57,WeatherDisplay:10.37,2013-07-01 19:02:00,
2013-07-01 15:07:00,74.8,73.0,29.93,WSW,248,0.0,0.0,94,0.09,RA,,1.57,WeatherDisplay:10.37,2013-07-01 19:07:00,
2013-07-01 15:12:00,75.0,72.9,29.93,SW,225,0.0,0.0,93,0.08,CLR,,1.57,WeatherDisplay:10.37,2013-07-01 19:12:00,
2013-07-01 15:17:00,75.0,72.9,29.93,ENE,68,0.2,0.2,93,0.08,CLR,,1.57,WeatherDisplay:10.37,2013-07-01 19:17:00,
2013-07-01 15:22:00,75.2,73.4,29.93,NE,45,0.0,0.0,94,0.07,CLR,,1.57,WeatherDisplay:10.37,2013-07-01 19:22:00,
2013-07-01 15:27:00,75.2,73.4,29.93,WNW,292,0.0,0.0,94,0.06,CLR,,1.57,WeatherDisplay:10.37,2013-07-01 19:27:00,
2013-07-01 15:32:00,75.4,73.5,29.93,WNW,292,0.2,0.2,94,0.05,CLR,,1.57,WeatherDisplay:10.37,2013-07-01 19:32:00,
2013-07-01 15:37:00,75.7,73.9,29.93,WSW,248,0.0,0.0,94,0.04,CLR,,1.57,WeatherDisplay:10.37,2013-07-01 19:37:00,
2013-07-01 15:42:00,75.9,74.1,29.93,ENE,68,0.0,0.0,94,0.03,CLR,,1.57,WeatherDisplay:10.37,2013-07-01 19:42:00,
2013-07-01 15:47:00,75.9,73.7,29.93,ENE,68,2.3,2.3,93,0.03,CLR,,1.57,WeatherDisplay:10.37,2013-07-01 19:47:00,
2013-07-01 15:52:00,75.9,73.7,29.93,ENE,68,0.5,0.5,93,0.01,CLR,,1.57,WeatherDisplay:10.37,2013-07-01 19:52:00,
2013-07-01 15:57:00,75.7,73.9,29.93,East,90,0.5,0.5,94,0.01,CLR,,1.57,WeatherDisplay:10.37,2013-07-01 19:57:00,
2013-07-01 16:02:00,75.6,73.7,29.93,SE,135,0.0,0.0,94,0.00,CLR,,1.57,WeatherDisplay:10.37,2013-07-01 20:02:00,
2013-07-01 16:07:00,75.6,73.4,29.92,East,90,0.0,0.0,93,0.00,CLR,,1.57,WeatherDisplay:10.37,2013-07-01 20:07:00,
2013-07-01 16:12:00,75.6,73.7,29.93,SSE,158,1.1,0.0,94,0.00,CLR,,1.57,WeatherDisplay:10.37,2013-07-01 20:12:00,
2013-07-01 16:17:00,75.6,73.7,29.93,ESE,112,2.3,2.3,94,0.00,CLR,,1.57,WeatherDisplay:10.37,2013-07-01 20:17:00,
2013-07-01 16:22:00,75.4,73.5,29.92,North,0,0.0,0.0,94,0.00,CLR,,1.57,WeatherDisplay:10.37,2013-07-01 20:22:00,
2013-07-01 16:27:00,75.2,73.4,29.93,East,90,1.1,1.1,94,0.00,CLR,,1.57,WeatherDisplay:10.37,2013-07-01 20:27:00,
2013-07-01 16:33:00,75.4,73.5,29.93,East,90,0.5,0.5,94,0.01,RA,,1.59,WeatherDisplay:10.37,2013-07-01 20:33:00,
2013-07-01 16:38:00,75.4,73.5,29.93,SW,225,0.0,0.0,94,0.01,RA,,1.59,WeatherDisplay:10.37,2013-07-01 20:38:00,
2013-07-01 16:43:00,75.6,73.7,29.93,SW,225,1.1,1.1,94,0.01,CLR,,1.59,WeatherDisplay:10.37,2013-07-01 20:43:00,
2013-07-01 16:48:00,75.4,73.5,29.93,SW,225,0.0,0.0,94,0.01,CLR,,1.59,WeatherDisplay:10.37,2013-07-01 20:48:00,
2013-07-01 16:53:00,75.2,73.4,29.93,East,90,1.1,0.0,94,0.01,CLR,,1.59,WeatherDisplay:10.37,2013-07-01 20:53:00,
2013-07-01 16:58:00,75.0,73.2,29.93,West,270,0.0,0.0,94,0.01,CLR,,1.59,WeatherDisplay:10.37,2013-07-01 20:58:00,
2013-07-01 17:03:00,74.8,73.0,29.93,East,90,0.5,0.5,94,0.01,CLR,,1.59,WeatherDisplay:10.37,2013-07-01 21:03:00,
2013-07-01 17:08:00,74.7,72.8,29.93,ESE,112,0.0,0.0,94,0.01,CLR,,1.59,WeatherDisplay:10.37,2013-07-01 21:08:00,
2013-07-01 17:13:00,74.7,72.8,29.93,ENE,68,0.0,0.0,94,0.01,CLR,,1.59,WeatherDisplay:10.37,2013-07-01 21:13:00,
2013-07-01 17:18:00,74.8,73.0,29.93,West,270,1.1,1.1,94,0.01,CLR,,1.59,WeatherDisplay:10.37,2013-07-01 21:18:00,
2013-07-01 17:23:00,74.8,73.0,29.93,SW,225,0.2,0.2,94,0.01,CLR,,1.59,WeatherDisplay:10.37,2013-07-01 21:23:00,
2013-07-01 17:28:00,74.8,73.0,29.93,ENE,68,1.1,1.1,94,0.01,CLR,,1.59,WeatherDisplay:10.37,2013-07-01 21:28:00,
2013-07-01 17:33:00,74.7,72.8,29.93,ESE,112,0.0,0.0,94,0.00,CLR,,1.59,WeatherDisplay:10.37,2013-07-01 21:33:00,
2013-07-01 17:38:00,74.8,73.0,29.93,SW,225,2.3,2.3,94,0.00,CLR,,1.59,WeatherDisplay:10.37,2013-07-01 21:38:00,
2013-07-01 17:43:00,74.8,73.0,29.93,SE,135,1.1,1.1,94,0.00,CLR,,1.59,WeatherDisplay:10.37,2013-07-01 21:43:00,
2013-07-01 17:48:00,74.8,73.0,29.93,South,180,1.1,1.1,94,0.00,CLR,,1.59,WeatherDisplay:10.37,2013-07-01 21:48:00,
2013-07-01 17:53:00,74.8,73.0,29.93,SE,135,0.0,0.0,94,0.00,CLR,,1.59,WeatherDisplay:10.37,2013-07-01 21:53:00,
2013-07-01 17:58:00,74.7,72.8,29.93,SSW,202,0.5,0.5,94,0.00,CLR,,1.59,WeatherDisplay:10.37,2013-07-01 21:58:00,
2013-07-01 18:03:00,74.5,72.6,29.93,ENE,68,1.1,0.0,94,0.00,CLR,,1.59,WeatherDisplay:10.37,2013-07-01 22:03:00,
2013-07-01 18:08:00,74.5,72.6,29.93,East,90,0.0,0.0,94,0.00,CLR,,1.59,WeatherDisplay:10.37,2013-07-01 22:08:00,
2013-07-01 18:13:00,74.5,72.6,29.93,SE,135,1.1,1.1,94,0.00,CLR,,1.59,WeatherDisplay:10.37,2013-07-01 22:13:00,
2013-07-01 18:18:00,74.7,72.8,29.93,ESE,112,2.4,2.4,94,0.00,CLR,,1.59,WeatherDisplay:10.37,2013-07-01 22:18:00,
2013-07-01 18:23:00,74.7,72.8,29.93,WNW,292,2.4,2.4,94,0.00,CLR,,1.59,WeatherDisplay:10.37,2013-07-01 22:23:00,
2013-07-01 18:28:00,74.7,72.8,29.93,WNW,292,1.1,0.0,94,0.00,CLR,,1.59,WeatherDisplay:10.37,2013-07-01 22:28:00,
2013-07-01 18:33:00,74.8,73.0,29.93,NW,315,1.1,0.0,94,0.00,CLR,,1.59,WeatherDisplay:10.37,2013-07-01 22:33:00,
2013-07-01 18:38:00,74.7,72.8,29.94,SE,135,2.3,2.3,94,0.00,CLR,,1.59,WeatherDisplay:10.37,2013-07-01 22:38:00,
2013-07-01 18:43:00,74.5,72.6,29.94,SW,225,2.6,2.6,94,0.00,CLR,,1.59,WeatherDisplay:10.37,2013-07-01 22:43:00,
2013-07-01 18:48:00,74.5,72.6,29.94,SE,135,2.3,2.3,94,0.00,CLR,,1.59,WeatherDisplay:10.37,2013-07-01 22:48:00,
2013-07-01 18:53:00,74.5,72.6,29.94,ENE,68,0.0,0.0,94,0.00,CLR,,1.59,WeatherDisplay:10.37,2013-07-01 22:53:00,
2013-07-01 18:58:00,74.5,72.6,29.94,SW,225,1.1,1.1,94,0.00,CLR,,1.59,WeatherDisplay:10.37,2013-07-01 22:58:00,
2013-07-01 19:03:00,74.7,72.8,29.94,SSE,158,1.1,1.1,94,0.00,CLR,,1.59,WeatherDisplay:10.37,2013-07-01 23:03:00,
2013-07-01 19:08:00,74.5,72.6,29.95,ENE,68,1.1,0.0,94,0.00,CLR,,1.59,WeatherDisplay:10.37,2013-07-01 23:08:00,
2013-07-01 19:13:00,74.5,72.6,29.95,SSE,158,0.2,0.2,94,0.00,CLR,,1.59,WeatherDisplay:10.37,2013-07-01 23:13:00,
2013-07-01 19:18:00,74.5,72.6,29.95,WSW,248,0.0,0.0,94,0.00,CLR,,1.59,WeatherDisplay:10.37,2013-07-01 23:18:00,
2013-07-01 19:23:00,74.3,72.5,29.95,East,90,0.0,0.0,94,0.00,CLR,,1.59,WeatherDisplay:10.37,2013-07-01 23:23:00,
2013-07-01 19:28:00,74.3,72.5,29.96,SE,135,0.9,0.9,94,0.00,CLR,,1.59,WeatherDisplay:10.37,2013-07-01 23:28:00,
2013-07-01 19:33:00,74.1,72.3,29.96,SW,225,1.1,1.1,94,0.00,CLR,,1.59,WeatherDisplay:10.37,2013-07-01 23:33:00,
2013-07-01 19:38:00,74.1,72.3,29.96,WSW,248,2.3,2.3,94,0.00,CLR,,1.59,WeatherDisplay:10.37,2013-07-01 23:38:00,
2013-07-01 19:43:00,74.1,72.3,29.96,ESE,112,1.1,1.1,94,0.00,CLR,,1.59,WeatherDisplay:10.37,2013-07-01 23:43:00,
2013-07-01 19:48:00,73.9,72.1,29.97,SW,225,1.1,0.0,94,0.00,CLR,,1.59,WeatherDisplay:10.37,2013-07-01 23:48:00,
2013-07-01 19:53:00,73.9,72.1,29.97,SW,225,1.1,0.0,94,0.00,CLR,,1.59,WeatherDisplay:10.37,2013-07-01 23:53:00,
2013-07-01 19:58:00,73.8,71.9,29.97,SSW,202,0.0,0.0,94,0.00,CLR,,1.59,WeatherDisplay:10.37,2013-07-01 23:58:00,
2013-07-01 20:03:00,73.8,71.9,29.97,SE,135,1.1,1.1,94,0.00,CLR,,1.59,WeatherDisplay:10.37,2013-07-02 00:03:00,
2013-07-01 20:08:00,73.8,71.9,29.96,SE,135,0.0,2.0,94,0.00,CLR,,1.59,WeatherDisplay:10.37,2013-07-02 00:08:00,
2013-07-01 20:13:00,73.6,71.7,29.96,WSW,248,1.1,1.1,94,0.00,CLR,,1.59,WeatherDisplay:10.37,2013-07-02 00:13:00,
2013-07-01 20:18:00,73.6,71.7,29.97,East,90,1.1,0.0,94,0.00,CLR,,1.59,WeatherDisplay:10.37,2013-07-02 00:18:00,
2013-07-01 20:23:00,73.6,71.7,29.98,WNW,292,1.1,1.1,94,0.00,CLR,,1.59,WeatherDisplay:10.37,2013-07-02 00:23:00,
2013-07-01 20:28:00,73.4,71.6,29.97,SE,135,0.0,0.0,94,0.00,CLR,,1.59,WeatherDisplay:10.37,2013-07-02 00:28:00,
2013-07-01 20:33:00,73.4,71.6,29.97,East,90,1.1,0.0,94,0.00,CLR,,1.59,WeatherDisplay:10.37,2013-07-02 00:33:00,
2013-07-01 20:38:00,73.4,71.6,29.97,WSW,248,0.0,0.0,94,0.00,CLR,,1.59,WeatherDisplay:10.37,2013-07-02 00:38:00,
2013-07-01 20:43:00,73.4,71.3,29.97,ESE,112,1.1,0.0,93,0.00,CLR,,1.59,WeatherDisplay:10.37,2013-07-02 00:43:00,
2013-07-01 20:48:00,73.4,71.3,29.97,ENE,68,1.1,0.0,93,0.00,CLR,,1.59,WeatherDisplay:10.37,2013-07-02 00:48:00,
2013-07-01 20:53:00,73.2,71.1,29.97,East,90,0.2,0.2,93,0.00,CLR,,1.59,WeatherDisplay:10.37,2013-07-02 00:53:00,
2013-07-01 20:58:00,73.2,71.1,29.98,East,90,0.0,0.0,93,0.00,CLR,,1.59,WeatherDisplay:10.37,2013-07-02 00:58:00,
2013-07-01 21:03:00,73.2,71.1,29.98,West,270,1.1,0.0,93,0.00,CLR,,1.59,WeatherDisplay:10.37,2013-07-02 01:03:00,
2013-07-01 21:08:00,73.2,71.1,29.98,West,270,0.0,0.0,93,0.00,CLR,,1.59,WeatherDisplay:10.37,2013-07-02 01:08:00,
2013-07-01 21:13:00,73.0,70.9,29.98,West,270,0.0,0.0,93,0.00,CLR,,1.59,WeatherDisplay:10.37,2013-07-02 01:13:00,
2013-07-01 21:18:00,73.0,70.9,29.98,ENE,68,0.5,0.5,93,0.00,CLR,,1.59,WeatherDisplay:10.37,2013-07-02 01:18:00,
2013-07-01 21:23:00,73.0,70.9,29.98,ENE,68,1.1,0.0,93,0.00,CLR,,1.59,WeatherDisplay:10.37,2013-07-02 01:23:00,
2013-07-01 21:28:00,73.0,70.9,29.98,ENE,68,0.0,0.0,93,0.00,CLR,,1.59,WeatherDisplay:10.37,2013-07-02 01:28:00,
2013-07-01 21:33:00,73.0,70.9,29.98,ENE,68,0.0,0.0,93,0.00,CLR,,1.59,WeatherDisplay:10.37,2013-07-02 01:33:00,
2013-07-01 21:38:00,73.0,70.9,29.99,ENE,68,0.0,0.0,93,0.00,CLR,,1.59,WeatherDisplay:10.37,2013-07-02 01:38:00,
2013-07-01 21:43:00,73.0,70.9,29.99,SE,135,1.6,1.6,93,0.00,CLR,,1.59,WeatherDisplay:10.37,2013-07-02 01:43:00,
2013-07-01 21:48:00,73.0,70.9,29.99,NNE,22,2.3,2.3,93,0.00,CLR,,1.59,WeatherDisplay:10.37,2013-07-02 01:48:00,
2013-07-01 21:53:00,73.0,70.9,29.99,ENE,68,0.5,0.5,93,0.00,CLR,,1.59,WeatherDisplay:10.37,2013-07-02 01:53:00,
2013-07-01 21:58:00,72.9,70.7,29.99,South,180,0.0,0.0,93,0.00,CLR,,1.59,WeatherDisplay:10.37,2013-07-02 01:58:00,
2013-07-01 22:03:00,72.9,70.7,29.99,SSE,158,0.5,0.5,93,0.00,CLR,,1.59,WeatherDisplay:10.37,2013-07-02 02:03:00,
2013-07-01 22:08:00,72.9,70.7,29.99,WSW,248,0.0,0.0,93,0.00,CLR,,1.59,WeatherDisplay:10.37,2013-07-02 02:08:00,
2013-07-01 22:13:00,72.9,70.7,29.99,SSE,158,1.1,1.1,93,0.00,CLR,,1.59,WeatherDisplay:10.37,2013-07-02 02:13:00,
2013-07-01 22:18:00,72.9,70.7,30.00,SE,135,1.1,0.0,93,0.00,CLR,,1.59,WeatherDisplay:10.37,2013-07-02 02:18:00,
2013-07-01 22:23:00,72.9,70.7,29.99,SE,135,1.1,1.1,93,0.00,CLR,,1.59,WeatherDisplay:10.37,2013-07-02 02:23:00,
2013-07-01 22:28:00,72.9,70.7,30.00,SSW,202,1.8,1.8,93,0.00,CLR,,1.59,WeatherDisplay:10.37,2013-07-02 02:28:00,
2013-07-01 22:33:00,72.9,70.7,30.00,SSW,202,0.0,0.5,93,0.00,CLR,,1.59,WeatherDisplay:10.37,2013-07-02 02:33:00,
2013-07-01 22:38:00,72.9,70.7,30.00,West,270,1.1,0.0,93,0.00,CLR,,1.59,WeatherDisplay:10.37,2013-07-02 02:38:00,
2013-07-01 22:43:00,72.9,70.7,30.00,SSW,202,0.5,0.5,93,0.00,CLR,,1.59,WeatherDisplay:10.37,2013-07-02 02:43:00,
2013-07-01 22:48:00,72.9,70.7,29.99,SSW,202,1.8,1.8,93,0.00,CLR,,1.59,WeatherDisplay:10.37,2013-07-02 02:48:00,
2013-07-01 22:53:00,72.9,70.7,29.99,NE,45,1.1,1.1,93,0.00,CLR,,1.59,WeatherDisplay:10.37,2013-07-02 02:53:00,
2013-07-01 22:58:00,72.7,70.5,29.99,SW,225,0.0,0.0,93,0.00,CLR,,1.59,WeatherDisplay:10.37,2013-07-02 02:58:00,
2013-07-01 23:03:00,72.7,70.5,29.99,SSE,158,1.1,0.0,93,0.00,CLR,,1.59,WeatherDisplay:10.37,2013-07-02 03:03:00,
2013-07-01 23:08:00,72.7,70.9,30.00,South,180,1.1,1.1,94,0.00,CLR,,1.59,WeatherDisplay:10.37,2013-07-02 03:08:00,
2013-07-01 23:13:00,72.7,70.5,30.00,SSW,202,1.1,1.1,93,0.00,CLR,,1.59,WeatherDisplay:10.37,2013-07-02 03:13:00,
2013-07-01 23:18:00,72.7,70.5,30.00,SSE,158,1.4,1.4,93,0.00,CLR,,1.59,WeatherDisplay:10.37,2013-07-02 03:18:00,
2013-07-01 23:23:00,72.7,70.9,30.00,ESE,112,1.1,0.0,94,0.00,CLR,,1.59,WeatherDisplay:10.37,2013-07-02 03:23:00,
2013-07-01 23:28:00,72.7,70.9,30.00,SSW,202,2.3,2.3,94,0.00,CLR,,1.59,WeatherDisplay:10.37,2013-07-02 03:28:00,
2013-07-01 23:33:00,72.7,70.9,30.00,SSE,158,2.3,2.3,94,0.00,CLR,,1.59,WeatherDisplay:10.37,2013-07-02 03:33:00,
2013-07-01 23:38:00,72.7,70.9,30.00,South,180,0.0,1.8,94,0.00,CLR,,1.59,WeatherDisplay:10.37,2013-07-02 03:38:00,
2013-07-01 23:43:00,72.7,70.9,30.00,SSW,202,2.3,2.3,94,0.00,CLR,,1.59,WeatherDisplay:10.37,2013-07-02 03:43:00,
2013-07-01 23:48:00,72.7,70.9,30.00,ESE,112,2.3,2.3,94,0.00,CLR,,1.59,WeatherDisplay:10.37,2013-07-02 03:48:00,
2013-07-01 23:53:00,72.9,71.0,30.00,SSW,202,1.6,1.6,94,0.00,CLR,,1.59,WeatherDisplay:10.37,2013-07-02 03:53:00,
2013-07-01 23:58:00,72.9,71.0,30.01,SW,225,0.5,0.5,94,0.00,CLR,,1.59,WeatherDisplay:10.37,2013-07-02 03:58:00,